Flag for U.S.A. Weather past 2 weeks in Vincennes, Indiana, U.S.A.

Now
20 °F

Overcast.


Feels Like: 4 °F
Forecast: 12 / 22 °F
Wind: 20 mph from North

Location: Lawrenceville-Vincennes International Airport

Current Time: Mar 4, 2015 at 7:40:02 PM

Latest Report: Mar 4, 2015 at 6:53 PM


Visibility: N/A

Pressure: 30.25 "Hg

Humidity: 62%

Dew point: 9 °F

Location of VincennesLocation

Historic Weather in Vincennes — Graph

°F

Vincennes temperature yesterday

Maximum temperature yesterday: 42 °F (at 3:53 PM)
Minimum temperature yesterday: 27 °F (at 12:53 AM)
Average temperature yesterday: 36 °F

Past Weeks' High & Low Weather Summary

 TemperatureHumidityPressure
High42 °F (Mar 3, 3:53 PM)100% (Feb 21, 8:53 AM)30.76 "Hg (Feb 21, 8:53 AM)
Low-12 °F (Feb 20, 4:53 AM)45% (Feb 27, 3:53 PM)29.82 "Hg (Mar 3, 2:53 PM)
Average20 °F75%30.29 "Hg
* Reported Feb 17 5:53 PM — Mar 4 5:53 PM, Vincennes, Weather by CustomWeather, © 2015

Note: Actual official high and low records may vary slightly from our data, if they occured in-between our weather recording intervals... More about our weather records

Advertising

Vincennes weather history for previous 24 hours

 ConditionsComfort  
Time TempWeatherWind HumidityBarometerVisibility
5:53 PM
Wed, Mar 4
20 °FLight snow. Overcast.17 mph78%30.23 "HgN/A
4:53 PM21 °FLight snow. Overcast.18 mph78%30.20 "HgN/A
3:53 PM21 °FHeavy snow. Overcast.15 mph85%30.17 "HgN/A
2:53 PM23 °FLight snow. Mostly cloudy.17 mph78%30.16 "HgN/A
2:02 PM23 °FSnow. Mostly cloudy.21 mph78%30.16 "HgN/A
12:53 PM26 °FOvercast.20 mph71%30.18 "HgN/A
11:53 AM27 °FOvercast.15 mph75%30.15 "HgN/A
10:53 AM29 °FOvercast.15 mph82%30.12 "HgN/A
9:53 AM32 °FOvercast.16 mph85%30.09 "HgN/A
8:53 AM34 °FOvercast.15 mph82%30.06 "HgN/A
7:53 AM34 °FOvercast.9 mph85%30.03 "HgN/A
6:53 AM34 °FMostly cloudy.8 mph88%30.01 "HgN/A
6:03 AM34 °FMostly cloudy.9 mph92%29.98 "HgN/A
5:53 AM34 °FMostly cloudy.8 mph92%29.98 "HgN/A
4:53 AM34 °FRain. Overcast.8 mph92%29.97 "HgN/A
3:53 AM34 °FLight rain. Overcast.8 mph97%29.93 "HgN/A
2:53 AM34 °FLight rain. Mostly cloudy.6 mph97%29.93 "HgN/A
1:53 AM35 °FLight rain. Overcast.15 mph92%29.94 "HgN/A
12:53 AM37 °FRain. Mostly cloudy.8 mph96%29.92 "HgN/A
12:00 AM37 °FLight rain. Mostly cloudy.7 mph96%29.91 "HgN/A
10:53 PM
Tue, Mar 3
38 °FLight rain. Mostly cloudy.5 mph100%29.93 "HgN/A
9:53 PM39 °FLight rain. Mostly cloudy.6 mph96%29.93 "HgN/A
8:53 PM39 °FLight rain. Mostly cloudy.5 mph96%29.89 "HgN/A
7:53 PM38 °FLight rain. Overcast.6 mph100%29.90 "HgN/A
Weather by CustomWeather, © 2015

See weather overviewHow to use our weather pages